Volver al catálogo

OPS 0856 DEB

LostPO
NORAD 25931·DEBRIS·🇺🇸 United States

Lanzado Aug 19, 1966 desde Vandenberg Space Force Base

Loading…

Próximos Pases (próximas 24 horas)

TLE

ObsoletoSource: Space-Track

Época: Jul 2, 2024, 12:07 UTC

1 25931U 66077X   24184.50490472  .00001073  00000-0  26860-1 0  9990
2 25931  87.5937   6.9478 2262964 275.6655  82.0415  8.82233511795332

Sigue OPS 0856 DEB en tiempo real con AllMySat

Download on the App Store